Temperature
28 28 28 28 28 27 27 27 27 27 27 27 27 27 25 24 23 22 21 20 20 19 18 17 16 15 15 14 13 13 12 12 12 11 10 10 10 10 9 9 9 9 9 9
27 28 28 27 28 28 27 27 27 27 27 28 26 25 24 23 23 22 21 21 20 19 18 17 16 15 15 14 13 13 12 12 11 11 10 10 10 9 9 9 9 9 9 9
27 28 27 27 28 28 27 28 27 27 27 27 26 25 24 23 23 22 22 21 20 19 18 17 16 15 14 14 13 13 12 11 11 11 10 10 10 9 9 9 9 9 9 9
27 26 25 27 28 28 28 28 28 27 27 27 26 25 24 23 22 22 21 21 20 19 18 17 16 15 14 14 13 13 12 12 11 10 10 10 10 9 9 9 9 9 9 9
26 26 26 28 28 28 27 27 28 28 27 26 25 24 24 22 22 22 21 20 19 19 18 17 16 15 14 14 13 13 12 12 11 10 10 10 9 9 9 9 9 9 9 8
26 25 25 27 28 27 27 26 28 27 27 26 25 25 26 23 22 21 21 20 19 18 17 16 16 15 14 14 13 13 12 11 11 10 10 10 9 9 9 9 9 9 9 9
25 25 26 28 27 26 26 26 27 27 26 26 25 25 24 23 22 21 20 19 18 18 17 16 15 15 14 14 13 13 12 11 11 10 10 10 9 9 9 9 9 9 9 9
25 25 26 26 26 27 26 26 26 26 26 25 25 24 23 22 21 21 20 19 18 18 17 16 15 15 14 13 13 12 11 11 11 10 10 10 10 9 9 9 9 9 9 9
26 26 25 25 25 25 24 24 25 25 25 24 24 24 23 22 21 20 20 19 18 17 17 16 15 15 14 14 13 12 12 11 11 10 10 10 10 10 9 9 9 9 9 9
25 26 26 25 24 23 23 23 23 24 24 24 24 23 23 22 21 20 19 19 18 17 17 16 15 15 14 13 13 12 12 11 11 11 10 10 10 10 10 10 9 9 9 9
24 25 25 24 22 21 21 22 22 23 23 23 23 22 22 21 20 19 19 18 17 17 16 16 15 15 14 13 13 12 12 11 11 11 11 10 10 10 10 9 9 9 9 9
24 22 22 22 20 20 20 21 21 21 21 21 21 21 21 20 19 19 18 18 17 17 16 16 15 15 14 13 13 12 12 12 12 12 11 11 11 10 10 10 10 9 9 9
19 19 19 19 19 19 19 19 20 19 19 19 19 19 19 18 18 17 17 17 17 17 16 16 15 15 14 13 13 12 12 12 12 11 11 11 11 10 10 10 10 10 9 9
17 18 18 18 18 18 18 19 19 18 18 18 18 18 18 17 17 17 17 17 17 16 16 15 15 14 14 13 13 13 12 12 11 11 11 11 10 10 10 10 10 10 10 9
16 17 17 17 17 17 17 17 17 17 17 17 16 16 16 16 16 16 16 16 16 16 15 15 14 14 14 13 13 12 12 12 12 11 11 11 11 10 10 10 10 10 10 10
16 16 16 16 16 16 16 16 16 16 16 15 15 15 15 15 15 15 15 15 15 15 14 14 13 13 13 13 13 12 12 12 12 11 11 11 11 11 11 10 10 10 10 10
16 15 15 15 15 15 15 15 15 15 15 15 14 14 14 14 14 14 14 14 13 13 13 13 13 12 12 12 12 12 12 12 11 11 11 11 11 11 11 10 10 11 10 10
14 14 14 14 14 14 14 14 14 14 14 14 14 14 14 13 13 13 13 13 13 13 12 12 12 12 11 11 11 11 12 12 12 11 11 11 11 11 11 10 10 10 10 10
13 13 13 13 13 13 13 13 13 13 13 13 13 13 13 12 12 12 12 12 12 12 12 11 11 11 11 11 11 11 11 11 11 11 11 11 10 11 11 10 10 10 10 10
12 12 12 12 12 12 12 12 13 12 12 12 12 12 12 12 11 11 11 11 11 11 10 10 10 10 10 10 10 10 11 11 11 11 11 11 11 11 11 10 10 10 10 10
12 12 12 12 12 12 12 12 12 12 12 11 11 11 11 11 11 11 11 11 10 10 10 10 10 10 10 10 10 10 10 10 10 11 11 11 11 11 10 10 10 10 10 10
12 12 11 12 11 11 11 11 11 11 11 11 11 11 10 10 10 10 10 10 10 9 9 9 10 9 9 9 9 10 10 10 10 10 10 10 10 10 10 10 10 10 10 10
11 11 11 11 11 11 11 11 11 11 10 10 10 10 10 10 10 10 10 10 9 9 8 9 9 8 8 8 9 9 9 9 10 10 10 10 9 9 9 10 10 10 10 10
10 10 10 10 10 10 10 11 10 10 10 10 10 10 10 10 10 10 9 9 8 8 8 8 8 8 8 8 8 8 9 9 9 9 9 9 9 9 9 9 9 9 9 9
10 10 10 10 10 10 10 10 10 10 10 10 10 10 10 10 9 9 9 8 8 8 8 7 7 7 7 7 8 8 8 8 8 8 8 8 8 8 9 9 9 9 9 9
10 10 10 10 10 9 10 10 10 10 10 10 10 10 10 9 9 9 8 8 8 7 7 7 7 7 7 7 7 7 7 7 7 7 7 8 8 8 8 8 9 9 9 9
10 10 10 10 10 10 10 10 10 10 10 9 9 9 9 9 9 9 8 8 7 7 7 6 6 6 6 6 6 6 6 6 6 6 7 7 7 7 8 8 8 8 8 9
Wind_Speed
8 7 7 9 9 8 10 10 9 7 6 3 3 5 7 8 8 8 8 7 7 5 4 4 4 4 5 5 6 7 8 9 9 10 10 11 11 11 11 11 12 12 12 12
10 9 9 11 10 10 10 9 9 8 6 1 3 5 7 8 8 8 8 7 6 5 4 4 4 4 5 6 6 7 8 9 10 10 10 11 11 11 11 11 12 12 12 12
11 8 9 11 8 7 7 7 7 7 2 5 5 6 8 8 8 8 7 7 6 5 5 4 4 4 5 6 6 7 8 9 10 10 11 11 12 12 11 11 12 12 12 12
9 8 10 4 0 4 7 7 7 5 2 4 4 5 6 7 7 7 7 7 6 5 4 4 3 4 4 6 7 8 9 9 10 10 11 11 12 12 11 11 11 12 12 13
8 10 9 6 4 5 6 7 6 6 4 4 4 5 7 9 9 8 7 7 6 5 4 3 4 4 5 6 7 8 9 9 10 10 11 12 12 12 11 11 12 12 12 12
8 9 8 2 4 3 5 7 4 6 6 6 7 7 3 7 9 8 7 7 6 5 5 4 4 4 5 7 8 8 9 9 10 10 11 12 12 12 11 11 12 12 12 12
10 9 8 2 5 5 6 3 2 4 6 8 9 6 1 6 7 8 8 8 7 6 6 5 4 5 6 7 8 8 9 10 10 10 11 12 12 11 11 11 12 12 13 12
6 8 5 5 4 4 4 4 1 4 6 8 9 7 6 6 7 8 9 9 8 7 6 5 5 6 7 8 8 8 9 10 11 11 11 10 11 11 11 11 12 12 11 12
4 3 4 0 3 4 6 6 6 6 7 8 10 9 9 9 8 9 9 8 8 7 7 6 6 6 8 8 7 8 9 10 11 11 11 11 11 12 11 10 9 10 10 10
5 5 3 3 4 6 8 9 9 8 7 8 9 9 9 8 8 8 8 8 7 7 7 6 6 7 8 8 7 8 10 10 10 11 11 10 9 9 10 10 9 10 10 10
9 7 6 2 8 10 10 8 7 6 5 6 7 7 7 7 7 6 6 6 6 7 7 6 6 7 8 8 8 9 10 10 11 11 10 9 10 9 10 10 9 10 11 11
5 6 7 8 11 11 9 8 6 4 3 2 3 3 4 4 4 4 5 5 6 7 7 7 7 8 8 8 8 9 10 10 10 9 9 9 10 10 9 12 11 13 15 14
5 7 6 7 8 10 8 8 7 5 4 3 3 2 1 1 2 2 3 5 5 6 6 7 8 9 9 9 9 10 11 10 10 10 10 10 10 10 11 9 11 15 16 16
4 2 4 7 8 9 9 8 8 9 8 7 6 5 4 3 2 2 2 4 4 5 7 8 9 9 9 9 9 11 12 10 10 10 10 10 10 10 10 11 11 9 8 13
8 8 7 8 9 11 11 11 11 11 10 9 8 7 6 5 4 3 3 4 5 6 8 9 9 10 9 9 10 11 11 9 8 9 10 10 10 10 10 10 10 10 8 5
8 10 10 11 12 12 12 13 12 11 11 10 10 9 8 7 6 5 5 5 6 8 9 9 10 10 9 9 10 10 10 11 9 10 11 10 9 9 9 9 10 9 8 7
9 10 10 11 11 11 11 11 10 10 10 10 9 9 8 8 8 8 8 8 8 9 9 9 10 10 9 9 10 10 10 9 9 10 11 10 9 9 9 9 9 8 7 5
10 9 9 9 9 9 10 10 10 10 10 10 10 9 9 9 9 10 10 10 10 9 9 9 10 11 10 9 9 10 10 10 9 9 9 9 9 9 9 9 9 9 7 4
8 8 8 8 8 9 9 9 9 9 9 10 10 9 9 9 10 10 11 11 11 10 10 12 11 11 11 9 8 9 10 11 10 10 9 8 9 10 9 8 8 8 7 6
6 7 7 8 9 8 8 8 9 9 9 9 10 10 10 10 10 11 11 11 10 11 13 13 13 11 10 8 6 10 10 11 11 10 9 9 9 9 8 7 7 8 7 6
6 7 8 9 9 9 9 9 9 9 9 9 9 9 10 10 11 11 12 11 11 12 13 13 11 10 9 8 7 11 10 9 9 9 9 9 8 8 8 7 6 6 6 6
7 8 9 10 10 10 10 9 9 9 9 9 10 10 11 11 12 12 12 10 12 11 13 13 12 10 11 11 10 10 10 9 9 8 8 8 8 7 7 6 5 5 5 4
8 9 10 10 11 11 11 10 10 9 9 10 10 11 11 12 12 12 13 11 13 13 14 13 11 10 12 12 10 10 10 9 8 8 8 7 7 6 6 6 5 5 4 4
9 10 10 11 11 12 12 11 11 9 10 11 11 11 12 12 11 11 12 12 12 12 14 11 9 11 12 11 10 9 8 8 7 7 7 6 6 5 5 5 4 4 4 5
11 11 12 12 12 11 11 11 11 11 12 11 12 12 11 11 11 12 13 14 13 12 13 11 9 10 11 10 9 8 7 6 5 6 6 5 5 5 5 5 4 5 4 4
12 12 12 12 12 12 12 11 11 11 11 11 11 11 12 12 13 12 11 13 15 12 12 11 11 10 9 9 8 7 6 5 4 5 4 4 4 4 4 5 6 4 4 4
13 13 11 12 12 11 11 11 12 12 12 12 13 13 13 14 13 13 13 12 12 11 10 10 9 9 8 8 7 6 5 4 4 4 4 3 3 3 4 4 4 4 4 3
Wind_Direction
276 280 272 271 271 252 248 268 281 290 289 284 208 202 188 182 180 184 188 193 199 212 221 239 258 274 283 291 295 299 298 299 302 304 303 300 300 298 296 293 290 289 288 286
266 263 264 266 266 259 250 254 263 273 275 92 148 171 179 187 192 198 202 206 208 215 229 244 263 279 289 292 296 295 295 299 302 302 303 303 302 300 298 295 293 290 287 286
268 265 263 262 259 253 242 239 253 268 293 144 179 194 198 198 205 214 215 212 214 222 232 247 265 277 281 286 291 293 295 298 301 303 304 305 304 304 301 298 295 292 290 288
263 261 259 280 199 263 257 248 240 257 231 194 203 199 201 205 210 215 216 213 213 223 229 240 253 261 272 286 290 294 297 299 303 303 304 305 304 301 300 297 295 292 291 290
256 254 255 249 209 223 240 253 233 234 222 192 175 198 213 205 210 216 214 210 213 223 233 241 258 266 275 285 292 295 299 302 304 305 304 303 302 302 301 297 294 292 291 291
244 262 266 283 121 178 240 252 211 209 213 195 189 245 239 170 194 205 207 204 209 215 225 234 249 261 270 283 292 297 302 304 304 301 300 300 300 301 299 295 291 292 293 293
245 253 262 47 130 180 241 327 101 209 217 209 215 253 107 162 184 196 202 204 207 218 228 237 243 251 267 283 292 299 302 301 299 298 297 294 295 295 294 292 292 292 292 290
245 251 268 97 165 229 342 18 279 242 232 226 226 224 202 190 190 197 203 208 208 214 226 230 232 244 264 278 291 295 295 294 296 297 298 300 297 294 294 293 291 290 290 291
267 293 41 328 280 315 331 306 293 275 259 236 233 229 221 214 209 209 212 213 214 218 226 230 232 244 262 276 285 288 290 291 294 296 297 294 294 296 295 292 292 296 299 300
266 267 313 321 326 324 314 302 294 283 269 246 238 236 231 224 219 218 217 215 213 219 228 235 241 247 257 269 275 278 282 288 290 292 294 297 296 293 295 298 299 301 302 302
265 287 302 348 3 347 333 321 309 297 278 259 246 240 232 224 221 218 213 209 210 219 230 243 252 255 258 263 265 272 278 283 287 290 294 296 292 289 290 292 296 295 300 301
303 0 330 336 353 349 346 348 346 336 324 304 266 258 254 241 230 221 212 205 208 220 233 242 247 253 257 256 254 262 272 278 286 292 298 297 298 297 262 251 259 251 252 265
314 325 334 342 357 4 7 11 18 24 26 27 32 17 347 303 278 249 225 219 226 231 244 252 254 257 259 255 251 254 266 278 286 291 295 296 298 302 304 286 242 237 240 243
354 351 33 26 23 23 25 31 41 46 43 38 34 28 20 5 337 296 275 261 253 253 259 262 262 264 266 259 251 254 263 269 267 279 285 290 294 296 297 299 304 300 254 229
59 67 67 54 45 40 37 38 41 39 34 32 30 23 14 359 343 331 320 303 288 279 276 275 270 271 269 260 253 255 264 271 277 284 285 285 288 290 292 295 297 302 307 277
85 76 66 55 45 38 36 35 34 30 26 23 19 12 2 349 340 338 334 329 310 298 295 291 285 282 274 261 255 255 257 254 259 277 281 283 284 289 295 298 297 301 309 311
80 64 52 45 39 33 29 26 23 18 15 12 7 3 358 351 349 348 343 334 319 307 305 304 302 298 283 267 260 263 268 260 227 256 271 279 285 289 294 297 298 303 306 315
71 60 46 34 23 18 14 12 9 6 2 357 354 354 351 348 344 340 336 331 324 317 319 320 321 309 290 275 267 270 271 272 273 274 280 282 286 288 289 292 294 299 304 297
58 46 34 23 11 4 0 358 355 353 350 348 346 344 343 342 339 335 333 328 322 320 330 327 321 302 294 283 274 265 269 272 274 273 276 274 272 277 284 288 295 300 301 310
38 24 11 2 356 349 342 340 339 339 341 340 338 337 338 339 337 335 331 322 330 336 331 326 315 304 299 295 283 276 270 271 274 277 277 279 281 285 287 291 297 298 304 313
8 0 354 347 340 335 331 328 326 325 328 329 328 328 330 330 330 330 327 324 334 341 331 315 304 307 309 317 288 279 275 273 274 275 277 280 284 288 292 296 295 299 309 318
346 343 338 333 330 327 324 317 312 311 314 316 318 322 324 324 324 323 319 322 327 344 329 318 316 336 330 311 289 279 274 272 272 273 276 283 289 295 297 299 298 301 309 318
324 325 323 322 321 316 312 307 304 306 308 312 313 314 318 318 315 314 315 327 327 335 322 316 332 329 311 295 286 280 277 273 273 275 277 280 283 287 294 300 303 309 314 312
309 310 310 310 308 302 301 304 305 302 300 298 299 305 306 305 308 313 318 322 324 323 315 319 314 303 293 290 285 280 277 274 274 279 285 289 296 298 302 308 309 316 321 316
301 301 300 300 296 296 299 296 292 289 289 295 299 302 304 308 310 313 314 315 319 315 317 318 308 299 296 297 292 287 281 284 291 292 288 296 302 306 315 322 327 329 327 327
293 291 294 294 293 291 289 290 293 297 298 299 301 305 307 308 307 308 308 314 318 321 318 319 321 315 313 312 307 302 299 294 284 279 292 300 307 317 324 328 326 321 320 333
286 284 279 279 281 283 287 290 292 294 297 299 302 306 305 305 305 307 309 312 314 317 319 320 323 326 328 327 325 324 317 312 307 303 305 310 320 324 331 332 328 329 331 346
Height
1488 1485 1487 1488 1488 1488 1491 1490 1493 1491 1489 1487 1489 1492 1497 1501 1505 1508 1511 1513 1514 1516 1517 1517 1517 1516 1516 1515 1513 1512 1510 1508 1505 1503 1500 1497 1493 1490 1487 1485 1482 1479 1477 1474
1490 1484 1485 1487 1484 1484 1485 1486 1486 1486 1486 1485 1490 1493 1497 1500 1503 1505 1508 1510 1511 1513 1514 1514 1514 1513 1512 1511 1510 1508 1506 1504 1502 1498 1496 1492 1489 1486 1483 1480 1477 1474 1472 1469
1491 1482 1485 1489 1480 1480 1481 1480 1482 1484 1483 1486 1490 1492 1495 1498 1500 1502 1504 1507 1509 1510 1511 1511 1511 1510 1509 1508 1506 1505 1502 1500 1498 1495 1492 1489 1485 1482 1479 1476 1473 1470 1467 1464
1487 1490 1501 1481 1473 1475 1477 1477 1477 1479 1481 1485 1488 1491 1493 1496 1498 1500 1502 1504 1506 1507 1508 1508 1508 1507 1506 1505 1503 1501 1499 1497 1494 1491 1488 1485 1481 1478 1474 1471 1468 1465 1461 1459
1486 1489 1485 1474 1472 1474 1477 1477 1474 1477 1480 1483 1487 1489 1490 1493 1495 1497 1499 1501 1503 1504 1505 1504 1504 1504 1502 1501 1500 1498 1496 1493 1491 1487 1484 1480 1477 1474 1470 1466 1463 1460 1457 1453
1485 1492 1493 1475 1469 1473 1476 1478 1472 1475 1478 1481 1485 1484 1482 1488 1491 1494 1496 1498 1499 1500 1501 1500 1500 1500 1498 1498 1497 1495 1493 1490 1487 1483 1480 1476 1472 1469 1466 1462 1458 1455 1452 1448
1483 1487 1477 1467 1472 1475 1483 1478 1473 1474 1477 1479 1481 1482 1484 1486 1488 1491 1492 1494 1495 1496 1497 1497 1496 1495 1495 1494 1493 1491 1488 1485 1482 1479 1475 1472 1468 1464 1461 1457 1454 1450 1446 1443
1481 1486 1481 1471 1472 1473 1474 1474 1474 1474 1476 1477 1479 1481 1482 1484 1486 1487 1489 1490 1491 1492 1493 1493 1492 1492 1491 1490 1489 1486 1483 1481 1478 1475 1471 1468 1464 1460 1456 1453 1449 1445 1442 1438
1473 1474 1474 1473 1474 1475 1475 1475 1475 1474 1474 1475 1476 1477 1479 1481 1482 1484 1485 1487 1488 1488 1489 1489 1489 1488 1487 1486 1484 1481 1479 1477 1474 1470 1467 1463 1460 1456 1452 1449 1445 1442 1438 1434
1474 1468 1471 1473 1474 1475 1475 1474 1473 1473 1473 1473 1473 1474 1476 1477 1479 1480 1482 1483 1484 1484 1485 1486 1486 1485 1483 1481 1479 1477 1474 1472 1469 1466 1463 1460 1456 1452 1449 1445 1442 1438 1434 1430
1473 1471 1472 1472 1475 1475 1474 1472 1471 1470 1470 1470 1470 1471 1472 1474 1475 1476 1477 1478 1479 1480 1481 1482 1481 1480 1479 1477 1475 1473 1470 1468 1465 1463 1459 1455 1452 1448 1444 1441 1438 1434 1430 1427
1473 1477 1477 1476 1477 1475 1473 1471 1470 1469 1468 1468 1469 1469 1470 1471 1472 1473 1474 1474 1475 1476 1477 1476 1476 1475 1474 1472 1470 1468 1466 1464 1462 1459 1455 1452 1448 1444 1440 1437 1433 1429 1425 1422
1481 1480 1479 1479 1477 1475 1473 1471 1470 1469 1468 1468 1468 1468 1469 1470 1470 1470 1471 1471 1471 1471 1472 1471 1470 1470 1469 1467 1465 1463 1461 1459 1457 1454 1451 1447 1444 1440 1436 1432 1428 1424 1421 1417
1480 1480 1479 1479 1478 1476 1474 1472 1471 1470 1469 1469 1468 1468 1468 1468 1468 1468 1468 1468 1467 1467 1467 1467 1466 1465 1464 1462 1459 1457 1456 1454 1451 1448 1446 1443 1439 1436 1432 1428 1425 1421 1417 1413
1481 1481 1481 1480 1479 1477 1475 1473 1472 1471 1470 1470 1469 1468 1467 1467 1467 1466 1465 1464 1464 1463 1463 1462 1460 1459 1458 1456 1454 1452 1450 1449 1446 1444 1441 1438 1434 1431 1428 1425 1421 1417 1414 1410
1483 1483 1482 1481 1480 1479 1477 1475 1474 1473 1472 1471 1469 1468 1467 1467 1465 1464 1463 1461 1460 1459 1458 1457 1455 1454 1452 1450 1448 1446 1444 1442 1440 1438 1436 1433 1430 1427 1424 1421 1417 1414 1410 1407
1484 1484 1484 1483 1482 1481 1480 1478 1477 1475 1474 1472 1470 1469 1467 1466 1464 1462 1461 1459 1457 1456 1454 1452 1450 1448 1446 1444 1442 1441 1439 1437 1434 1432 1430 1428 1425 1423 1420 1417 1414 1410 1407 1404
1487 1486 1486 1485 1484 1482 1481 1480 1478 1476 1474 1473 1471 1469 1467 1465 1463 1461 1459 1456 1454 1452 1450 1448 1445 1442 1440 1438 1436 1435 1434 1432 1430 1428 1426 1423 1421 1418 1416 1413 1410 1407 1404 1401
1488 1487 1487 1486 1485 1483 1481 1480 1478 1476 1474 1472 1470 1468 1466 1464 1462 1459 1456 1454 1451 1449 1447 1444 1440 1437 1435 1433 1431 1429 1428 1427 1425 1423 1421 1418 1416 1414 1412 1409 1407 1404 1401 1399
1488 1487 1487 1485 1484 1482 1480 1478 1477 1475 1473 1471 1469 1466 1464 1462 1459 1457 1454 1452 1449 1446 1443 1439 1436 1433 1431 1428 1426 1424 1423 1421 1420 1418 1416 1414 1412 1410 1408 1406 1403 1401 1399 1396
1488 1487 1485 1484 1482 1481 1479 1477 1475 1473 1471 1469 1467 1465 1462 1460 1457 1455 1451 1449 1446 1442 1438 1435 1432 1429 1427 1424 1420 1419 1417 1416 1414 1413 1411 1410 1408 1406 1404 1402 1400 1398 1396 1394
1487 1485 1484 1482 1480 1478 1476 1474 1472 1470 1468 1466 1464 1462 1460 1457 1454 1452 1449 1446 1443 1439 1435 1432 1428 1425 1421 1418 1416 1414 1412 1411 1409 1408 1407 1405 1404 1402 1400 1399 1397 1395 1393 1391
1484 1483 1481 1479 1477 1475 1473 1471 1469 1467 1465 1464 1461 1459 1457 1454 1451 1448 1445 1442 1438 1434 1430 1427 1423 1419 1415 1412 1410 1409 1407 1406 1404 1403 1402 1401 1400 1398 1397 1396 1394 1393 1391 1390
1482 1480 1478 1476 1474 1472 1469 1467 1465 1464 1462 1460 1457 1455 1453 1450 1447 1444 1441 1437 1434 1429 1426 1422 1417 1413 1410 1407 1405 1403 1402 1401 1400 1399 1398 1397 1396 1395 1394 1393 1392 1391 1389 1388
1478 1476 1474 1472 1470 1467 1465 1463 1461 1459 1457 1455 1453 1451 1448 1445 1443 1439 1436 1433 1429 1425 1421 1416 1412 1408 1405 1402 1400 1399 1398 1397 1396 1395 1394 1393 1393 1392 1391 1390 1389 1388 1388 1387
1473 1472 1469 1468 1465 1463 1461 1459 1456 1454 1452 1450 1448 1446 1443 1441 1438 1434 1431 1428 1424 1420 1416 1412 1408 1404 1401 1398 1396 1394 1393 1392 1392 1391 1391 1390 1389 1389 1388 1387 1387 1386 1386 1385
1468 1466 1463 1461 1459 1457 1455 1453 1451 1449 1447 1445 1443 1441 1438 1435 1432 1429 1426 1423 1420 1416 1412 1408 1404 1401 1397 1394 1392 1390 1389 1388 1388 1387 1387 1387 1386 1386 1386 1385 1385 1384 1384 1383